Overview Statistics Trail Chart Weather Telemetry Raw packets
 

This is the latest recevied weather packets stored in our database for station/object WX6HNX-5. If no packets are shown the sender has not sent any weather packets the latest 10 day(s).

<< 20 21 22 23 24 25 26 >>
Time Temp. Humidity Pressure Rain* Wind** Luminosity Snow
1777651345 23.33° C 45% 1013.3 hPa 0 mm - - -
1777651045 22.78° C 44% 1013.3 hPa 0 mm - - -
1777650746 22.78° C 46% 1013.3 hPa 0 mm - - -
1777650445 22.22° C 49% 1013.3 hPa 0 mm - - -
1777650145 22.22° C 49% 1013.2 hPa 0 mm - - -
1777649845 22.22° C 52% 1013.3 hPa 0 mm - - -
1777649544 21.67° C 54% 1013.3 hPa 0 mm - - -
1777648944 21.11° C 56% 1013.2 hPa 0 mm - - -
1777648644 20.56° C 56% 1013.2 hPa 0 mm - - -
1777648345 20° C 58% 1013.1 hPa 0 mm - - -
1777648044 20° C 59% 1013.1 hPa 0 mm - - -
1777647444 18.89° C 62% 1013.2 hPa 0 mm - - -
1777646845 17.22° C 65% 1013.1 hPa 0 mm - - -
1777646249 16.11° C 68% 1013.1 hPa 0 mm - - -
1777645345 15° C 70% 1013 hPa 0 mm - - -
1777644445 13.89° C 74% 1012.9 hPa 0 mm - - -
1777643545 12.78° C 74% 1012.8 hPa 0 mm - - -
1777643246 12.78° C 74% 1012.8 hPa 0 mm - - -
1777642346 12.78° C 75% 1012.6 hPa 0 mm - - -
1777641744 12.78° C 75% 1012.6 hPa 0 mm - - -
1777641447 12.78° C 75% 1012.6 hPa 0 mm - - -
1777640846 13.33° C 74% 1012.5 hPa 0 mm - - -
1777640544 13.33° C 75% 1012.4 hPa 0 mm - - -
1777640244 13.33° C 75% 1012.3 hPa 0 mm - - -
1777631524 15° C 72% 1011.7 hPa 0 mm - - -

* Rain latest hour (hover to see other rain measurements)
** Current wind speed in m/s (hover to see current wind gust speed)